FFT79 MMMY-KHOU

Flight info

Callsign FFT79
Flight time 1h 1m
Altitude 37000
Route MTY1A MTY J29 DEVOE DCT BRENI DCT LMEDA BELLR6
Aircraft A20N/M-SDE2E3FGHIRWXY/LB1

Departure

Time 2026-04-22 17:59
Airport Monterrey International Airport (MMMY)

Arrival

Time 2026-04-22 19:00
Airport William P. Hobby Airport (KHOU)
Time Latitude Longitude Altitude Speed Heading
2026-04-22 17:39 25.77913 -100.11386 1283 ft 0 kts 211°
2026-04-22 17:52 25.77922 -100.11380 1283 ft 2 kts 211°
2026-04-22 17:53 25.77934 -100.11372 1283 ft 2 kts 211°
2026-04-22 17:53 25.77947 -100.11363 1283 ft 2 kts 211°
2026-04-22 17:53 25.77960 -100.11355 1283 ft 2 kts 211°
2026-04-22 17:53 25.77973 -100.11345 1283 ft 2 kts 236°
2026-04-22 17:54 25.77978 -100.11330 1282 ft 2 kts 271°
2026-04-22 17:54 25.77976 -100.11318 1282 ft 0 kts 297°
2026-04-22 17:54 25.77972 -100.11311 1282 ft 1 kts 301°
2026-04-22 17:54 25.77971 -100.11311 1282 ft 0 kts 301°
2026-04-22 17:56 25.77982 -100.11330 1282 ft 6 kts 301°
2026-04-22 17:56 25.78022 -100.11403 1283 ft 15 kts 301°
2026-04-22 17:57 25.78091 -100.11530 1285 ft 21 kts 301°
2026-04-22 17:57 25.78165 -100.11664 1289 ft 19 kts 301°
2026-04-22 17:57 25.78232 -100.11781 1290 ft 14 kts 311°
2026-04-22 17:57 25.78312 -100.11779 1288 ft 13 kts 31°
2026-04-22 17:58 25.78392 -100.11723 1287 ft 10 kts 49°
2026-04-22 17:58 25.78372 -100.11644 1285 ft 12 kts 120°
2026-04-22 17:58 25.78219 -100.11366 1280 ft 78 kts 121°
2026-04-22 17:58 25.77826 -100.10646 1266 ft 140 kts 122°
2026-04-22 17:59 25.77241 -100.09573 1478 ft 170 kts 120°
2026-04-22 17:59 25.76646 -100.08456 2114 ft 171 kts 119°
2026-04-22 17:59 25.76052 -100.07309 2842 ft 171 kts 118°
2026-04-22 17:59 25.75466 -100.06150 3434 ft 178 kts 118°
2026-04-22 18:00 25.75058 -100.05344 3698 ft 188 kts 118°
2026-04-22 18:00 25.74147 -100.03548 4213 ft 212 kts 118°
2026-04-22 18:00 25.73376 -100.02037 4526 ft 236 kts 118°
2026-04-22 18:00 25.72543 -100.00408 4988 ft 254 kts 119°
2026-04-22 18:01 25.71644 -99.98654 5547 ft 268 kts 119°
2026-04-22 18:01 25.70730 -99.96816 6329 ft 273 kts 114°
2026-04-22 18:01 25.70340 -99.94789 7031 ft 278 kts 87°
2026-04-22 18:01 25.70851 -99.92725 7733 ft 281 kts 59°
2026-04-22 18:02 25.72172 -99.91155 8474 ft 284 kts 32°
2026-04-22 18:02 25.73993 -99.90372 9180 ft 286 kts 13°
2026-04-22 18:02 25.75923 -99.89848 9957 ft 289 kts 13°
2026-04-22 18:02 25.77890 -99.89301 10471 ft 299 kts 13°
2026-04-22 18:03 25.79973 -99.88715 10874 ft 315 kts 13°
2026-04-22 18:03 25.82128 -99.88102 11444 ft 324 kts 13°
2026-04-22 18:03 25.84331 -99.87471 12201 ft 327 kts 13°
2026-04-22 18:03 25.86548 -99.86835 12936 ft 331 kts 13°
2026-04-22 18:04 25.88793 -99.86191 13657 ft 335 kts 13°
2026-04-22 18:04 25.91072 -99.85534 14387 ft 339 kts 12°
2026-04-22 18:04 25.93361 -99.84873 15107 ft 341 kts 12°
2026-04-22 18:04 25.95644 -99.84216 15818 ft 344 kts 11°
2026-04-22 18:05 25.97965 -99.83490 16516 ft 349 kts 17°
2026-04-22 18:05 26.00156 -99.82218 17214 ft 358 kts 31°
2026-04-22 18:05 26.02043 -99.80379 17862 ft 367 kts 42°
2026-04-22 18:05 26.03784 -99.78284 18468 ft 372 kts 44°
2026-04-22 18:06 26.05520 -99.76135 19056 ft 376 kts 44°
2026-04-22 18:06 26.07265 -99.73971 19632 ft 380 kts 44°
2026-04-22 18:06 26.09045 -99.71774 20208 ft 384 kts 44°
2026-04-22 18:06 26.10837 -99.69572 20783 ft 387 kts 44°
2026-04-22 18:07 26.12678 -99.67316 21357 ft 391 kts 44°
2026-04-22 18:07 26.14494 -99.65094 21903 ft 394 kts 44°
2026-04-22 18:07 26.16344 -99.62831 22439 ft 398 kts 43°
2026-04-22 18:07 26.18224 -99.60531 22985 ft 401 kts 43°
2026-04-22 18:08 26.20088 -99.58248 23526 ft 405 kts 43°
2026-04-22 18:08 26.22001 -99.55905 24068 ft 408 kts 43°
2026-04-22 18:08 26.23917 -99.53556 24578 ft 411 kts 43°
2026-04-22 18:08 26.25844 -99.51193 25076 ft 414 kts 43°
2026-04-22 18:09 26.27778 -99.48824 25567 ft 417 kts 43°
2026-04-22 18:09 26.29739 -99.46416 26045 ft 420 kts 43°
2026-04-22 18:09 26.31700 -99.44008 26496 ft 423 kts 43°
2026-04-22 18:09 26.33673 -99.41584 26941 ft 426 kts 43°
2026-04-22 18:10 26.35670 -99.39130 27371 ft 429 kts 43°
2026-04-22 18:10 26.37706 -99.36625 27806 ft 431 kts 42°
2026-04-22 18:10 26.39722 -99.34142 28221 ft 434 kts 43°
2026-04-22 18:10 26.41744 -99.31654 28597 ft 437 kts 43°
2026-04-22 18:11 26.43779 -99.29156 28978 ft 439 kts 41°
2026-04-22 18:11 26.45905 -99.26683 29342 ft 440 kts 40°
2026-04-22 18:11 26.48053 -99.24236 29701 ft 443 kts 40°
2026-04-22 18:11 26.50229 -99.21764 30068 ft 445 kts 40°
2026-04-22 18:12 26.52408 -99.19282 30418 ft 448 kts 40°
2026-04-22 18:12 26.54572 -99.16787 30763 ft 451 kts 42°
2026-04-22 18:12 26.56008 -99.15035 30983 ft 453 kts 43°
2026-04-22 18:12 26.58819 -99.11543 31473 ft 455 kts 43°
2026-04-22 18:13 26.60953 -99.08873 31954 ft 453 kts 43°
2026-04-22 18:13 26.63061 -99.06235 32395 ft 452 kts 42°
2026-04-22 18:13 26.65154 -99.03616 32814 ft 451 kts 42°
2026-04-22 18:13 26.67250 -99.00999 33201 ft 450 kts 42°
2026-04-22 18:14 26.69336 -98.98394 33583 ft 449 kts 42°
2026-04-22 18:14 26.71438 -98.95766 33967 ft 448 kts 42°
2026-04-22 18:14 26.73517 -98.93165 34327 ft 447 kts 42°
2026-04-22 18:14 26.75595 -98.90566 34676 ft 446 kts 42°
2026-04-22 18:15 26.77659 -98.87983 34990 ft 446 kts 42°
2026-04-22 18:15 26.79734 -98.85385 35285 ft 446 kts 42°
2026-04-22 18:15 26.81814 -98.82778 35559 ft 446 kts 42°
2026-04-22 18:15 26.83867 -98.80205 35821 ft 446 kts 42°
2026-04-22 18:16 26.85931 -98.77616 36062 ft 446 kts 42°
2026-04-22 18:16 26.88015 -98.75002 36259 ft 447 kts 41°
2026-04-22 18:16 26.90099 -98.72385 36453 ft 448 kts 42°
2026-04-22 18:16 26.92172 -98.69778 36657 ft 449 kts 42°
2026-04-22 18:17 26.94252 -98.67165 36820 ft 451 kts 42°
2026-04-22 18:17 26.96318 -98.64565 36966 ft 452 kts 42°
2026-04-22 18:17 26.98437 -98.61897 36990 ft 453 kts 42°
2026-04-22 18:18 27.02630 -98.56610 36994 ft 453 kts 42°
2026-04-22 18:18 27.06825 -98.51315 36994 ft 453 kts 42°
2026-04-22 18:19 27.11000 -98.46037 36994 ft 452 kts 42°
2026-04-22 18:19 27.15173 -98.40760 36990 ft 452 kts 42°
2026-04-22 18:20 27.19345 -98.35477 36989 ft 452 kts 42°
2026-04-22 18:20 27.23533 -98.30165 36992 ft 452 kts 43°
2026-04-22 18:21 27.27681 -98.24897 36993 ft 452 kts 43°
2026-04-22 18:21 27.31863 -98.19582 36998 ft 451 kts 42°
2026-04-22 18:22 27.36029 -98.14278 36998 ft 451 kts 43°
2026-04-22 18:22 27.40167 -98.09006 37000 ft 450 kts 43°
2026-04-22 18:23 27.44299 -98.03735 37004 ft 450 kts 43°
2026-04-22 18:23 27.48461 -97.98418 37012 ft 449 kts 43°
2026-04-22 18:24 27.54645 -97.90501 37013 ft 448 kts 43°
2026-04-22 18:25 27.60796 -97.82617 37017 ft 448 kts 42°
2026-04-22 18:25 27.64899 -97.77351 37012 ft 447 kts 43°
2026-04-22 18:26 27.71063 -97.69427 37021 ft 448 kts 43°
2026-04-22 18:26 27.75180 -97.64122 37019 ft 447 kts 43°
2026-04-22 18:27 27.79278 -97.58836 37021 ft 446 kts 42°
2026-04-22 18:27 27.83362 -97.53565 37022 ft 446 kts 43°
2026-04-22 18:28 27.87422 -97.48319 37024 ft 445 kts 42°
2026-04-22 18:28 27.91747 -97.43385 37024 ft 439 kts 35°
2026-04-22 18:29 27.96457 -97.39013 37023 ft 436 kts 32°
2026-04-22 18:29 28.01215 -97.34770 37015 ft 435 kts 32°
2026-04-22 18:30 28.08356 -97.28383 37015 ft 435 kts 32°
2026-04-22 18:31 28.13078 -97.24146 37015 ft 436 kts 32°
2026-04-22 18:31 28.17848 -97.19858 37019 ft 436 kts 32°
2026-04-22 18:32 28.22602 -97.15578 36870 ft 438 kts 32°
2026-04-22 18:32 28.25018 -97.13403 36164 ft 440 kts 32°
2026-04-22 18:32 28.27388 -97.11266 35521 ft 440 kts 32°
2026-04-22 18:32 28.29787 -97.09098 34902 ft 438 kts 32°
2026-04-22 18:33 28.32149 -97.06963 34268 ft 437 kts 32°
2026-04-22 18:33 28.34556 -97.04791 33672 ft 435 kts 31°
2026-04-22 18:33 28.36896 -97.02674 33155 ft 431 kts 31°
2026-04-22 18:33 28.39239 -97.00561 32545 ft 431 kts 32°
2026-04-22 18:34 28.41595 -96.98432 31919 ft 432 kts 32°
2026-04-22 18:34 28.43961 -96.96294 31247 ft 433 kts 32°
2026-04-22 18:34 28.46331 -96.94151 30557 ft 434 kts 32°
2026-04-22 18:34 28.48657 -96.92041 30098 ft 430 kts 32°
2026-04-22 18:35 28.50987 -96.89926 29648 ft 426 kts 32°
2026-04-22 18:35 28.53299 -96.87827 29224 ft 422 kts 32°
2026-04-22 18:35 28.55575 -96.85767 28785 ft 418 kts 32°
2026-04-22 18:35 28.57832 -96.83717 28358 ft 414 kts 33°
2026-04-22 18:36 28.60102 -96.81656 27900 ft 411 kts 33°
2026-04-22 18:36 28.62301 -96.79655 27452 ft 408 kts 33°
2026-04-22 18:36 28.64515 -96.77643 27005 ft 405 kts 33°
2026-04-22 18:36 28.66712 -96.75644 26546 ft 403 kts 33°
2026-04-22 18:37 28.68914 -96.73642 26090 ft 400 kts 33°
2026-04-22 18:37 28.71085 -96.71663 25654 ft 397 kts 34°
2026-04-22 18:37 28.72505 -96.70367 25367 ft 395 kts 33°
2026-04-22 18:37 28.75343 -96.67774 24777 ft 392 kts 33°
2026-04-22 18:38 28.77460 -96.65840 24357 ft 389 kts 34°
2026-04-22 18:38 28.79563 -96.63918 23979 ft 388 kts 34°
2026-04-22 18:38 28.81692 -96.61964 23636 ft 390 kts 35°
2026-04-22 18:39 28.85741 -96.57843 22985 ft 389 kts 38°
2026-04-22 18:39 28.87721 -96.55777 22607 ft 387 kts 38°
2026-04-22 18:39 28.89709 -96.53705 22196 ft 385 kts 38°
2026-04-22 18:39 28.91663 -96.51667 21777 ft 382 kts 38°
2026-04-22 18:40 28.93631 -96.49613 21351 ft 379 kts 38°
2026-04-22 18:40 28.95560 -96.47600 20926 ft 376 kts 38°
2026-04-22 18:40 28.97487 -96.45587 20493 ft 374 kts 38°
2026-04-22 18:40 28.99388 -96.43601 20056 ft 372 kts 38°
2026-04-22 18:41 29.01288 -96.41615 19615 ft 370 kts 38°
2026-04-22 18:41 29.03192 -96.39623 19173 ft 368 kts 38°
2026-04-22 18:41 29.05073 -96.37652 18742 ft 366 kts 38°
2026-04-22 18:41 29.06954 -96.35683 18313 ft 363 kts 39°
2026-04-22 18:42 29.08794 -96.33752 17885 ft 361 kts 39°
2026-04-22 18:42 29.10641 -96.31817 17471 ft 359 kts 39°
2026-04-22 18:42 29.12495 -96.29874 17047 ft 357 kts 39°
2026-04-22 18:42 29.14302 -96.27979 16620 ft 355 kts 40°
2026-04-22 18:43 29.16114 -96.26077 16211 ft 353 kts 40°
2026-04-22 18:43 29.17937 -96.24161 15785 ft 351 kts 40°
2026-04-22 18:43 29.19722 -96.22284 15361 ft 350 kts 40°
2026-04-22 18:43 29.21502 -96.20412 14930 ft 348 kts 40°
2026-04-22 18:44 29.23270 -96.18552 14518 ft 347 kts 40°
2026-04-22 18:44 29.25045 -96.16685 14094 ft 345 kts 40°
2026-04-22 18:44 29.26807 -96.14829 13674 ft 343 kts 41°
2026-04-22 18:44 29.28552 -96.12990 13257 ft 341 kts 41°
2026-04-22 18:45 29.30277 -96.11169 13073 ft 330 kts 41°
2026-04-22 18:45 29.31933 -96.09420 12957 ft 318 kts 41°
2026-04-22 18:45 29.33544 -96.07716 12897 ft 309 kts 41°
2026-04-22 18:45 29.35114 -96.06053 12912 ft 311 kts 41°
2026-04-22 18:46 29.36710 -96.04363 12918 ft 311 kts 41°
2026-04-22 18:46 29.38300 -96.02676 12926 ft 312 kts 41°
2026-04-22 18:46 29.39900 -96.00979 12930 ft 312 kts 41°
2026-04-22 18:46 29.41503 -95.99276 12927 ft 312 kts 41°
2026-04-22 18:47 29.43097 -95.97584 12923 ft 312 kts 41°
2026-04-22 18:47 29.44678 -95.95905 12856 ft 312 kts 41°
2026-04-22 18:47 29.46301 -95.94180 12440 ft 314 kts 41°
2026-04-22 18:47 29.47902 -95.92480 12052 ft 312 kts 41°
2026-04-22 18:48 29.49467 -95.90816 11698 ft 310 kts 41°
2026-04-22 18:48 29.51050 -95.89130 11336 ft 307 kts 41°
2026-04-22 18:48 29.52604 -95.87476 10972 ft 306 kts 41°
2026-04-22 18:48 29.54166 -95.85812 10620 ft 304 kts 41°
2026-04-22 18:49 29.55719 -95.84158 10264 ft 303 kts 41°
2026-04-22 18:49 29.57251 -95.82525 9903 ft 301 kts 42°
2026-04-22 18:49 29.58777 -95.80898 9558 ft 299 kts 42°
2026-04-22 18:49 29.60295 -95.79278 9215 ft 297 kts 42°
2026-04-22 18:50 29.61814 -95.77655 8887 ft 294 kts 42°
2026-04-22 18:50 29.63293 -95.76077 8572 ft 292 kts 42°
2026-04-22 18:50 29.64776 -95.74492 8250 ft 290 kts 42°
2026-04-22 18:50 29.66251 -95.72915 7895 ft 288 kts 43°
2026-04-22 18:51 29.67707 -95.71358 7558 ft 286 kts 43°
2026-04-22 18:51 29.69170 -95.69793 7227 ft 284 kts 43°
2026-04-22 18:51 29.70610 -95.68251 6901 ft 282 kts 43°
2026-04-22 18:51 29.72034 -95.66727 6579 ft 280 kts 43°
2026-04-22 18:52 29.73470 -95.65189 6258 ft 278 kts 43°
2026-04-22 18:52 29.74870 -95.63690 5945 ft 275 kts 43°
2026-04-22 18:52 29.76260 -95.62200 5633 ft 273 kts 43°
2026-04-22 18:52 29.77659 -95.60700 5319 ft 271 kts 44°
2026-04-22 18:53 29.79020 -95.59240 5104 ft 265 kts 44°
2026-04-22 18:53 29.80325 -95.57839 5028 ft 245 kts 44°
2026-04-22 18:53 29.81516 -95.56443 4936 ft 244 kts 57°
2026-04-22 18:53 29.82023 -95.54636 4748 ft 241 kts 92°
2026-04-22 18:54 29.81722 -95.52738 4473 ft 239 kts 105°
2026-04-22 18:54 29.81332 -95.50883 4186 ft 237 kts 103°
2026-04-22 18:54 29.80971 -95.49036 3906 ft 235 kts 103°
2026-04-22 18:54 29.80450 -95.47292 3631 ft 232 kts 119°
2026-04-22 18:55 29.79539 -95.45774 3381 ft 228 kts 130°
2026-04-22 18:55 29.78487 -95.44430 3196 ft 218 kts 133°
2026-04-22 18:55 29.77470 -95.43220 3170 ft 202 kts 134°
2026-04-22 18:55 29.76488 -95.42066 3098 ft 201 kts 134°
2026-04-22 18:56 29.75532 -95.40939 2954 ft 191 kts 134°
2026-04-22 18:56 29.74626 -95.39867 2708 ft 179 kts 134°
2026-04-22 18:56 29.73794 -95.38879 2471 ft 166 kts 134°
2026-04-22 18:56 29.73026 -95.37968 2224 ft 152 kts 134°
2026-04-22 18:57 29.72321 -95.37131 1999 ft 138 kts 133°
2026-04-22 18:57 29.71659 -95.36345 1826 ft 136 kts 133°
2026-04-22 18:57 29.71005 -95.35568 1666 ft 135 kts 133°
2026-04-22 18:57 29.70347 -95.34785 1507 ft 135 kts 134°
2026-04-22 18:58 29.69691 -95.34008 1343 ft 135 kts 134°
2026-04-22 18:58 29.69042 -95.33237 1176 ft 134 kts 134°
2026-04-22 18:58 29.68396 -95.32471 1008 ft 134 kts 134°
2026-04-22 18:58 29.67741 -95.31695 832 ft 134 kts 133°
2026-04-22 18:59 29.67092 -95.30924 655 ft 133 kts 133°
2026-04-22 18:59 29.66452 -95.30164 484 ft 133 kts 133°
2026-04-22 18:59 29.65811 -95.29398 307 ft 132 kts 133°
2026-04-22 18:59 29.65168 -95.28635 121 ft 131 kts 134°
2026-04-22 19:00 29.64545 -95.27899 48 ft 120 kts 135°
2026-04-22 19:00 29.64148 -95.27427 48 ft 38 kts 133°
2026-04-22 19:00 29.64011 -95.27263 48 ft 27 kts 134°
2026-04-22 19:00 29.63925 -95.27089 48 ft 20 kts 95°
2026-04-22 19:01 29.63927 -95.26978 47 ft 10 kts 86°
2026-04-22 19:01 29.63937 -95.26895 48 ft 10 kts 57°
2026-04-22 19:01 29.64003 -95.26865 47 ft 12 kts
2026-04-22 19:01 29.64127 -95.26865 45 ft 20 kts 349°
2026-04-22 19:02 29.64230 -95.26972 44 ft 20 kts 309°
2026-04-22 19:02 29.64318 -95.27096 44 ft 20 kts 310°
2026-04-22 19:02 29.64394 -95.27227 45 ft 19 kts 299°
2026-04-22 19:02 29.64476 -95.27340 48 ft 17 kts 313°
2026-04-22 19:03 29.64560 -95.27442 48 ft 17 kts 314°
2026-04-22 19:03 29.64664 -95.27512 48 ft 17 kts 353°
2026-04-22 19:03 29.64788 -95.27518 48 ft 17 kts 358°
2026-04-22 19:03 29.64923 -95.27520 48 ft 20 kts 359°
2026-04-22 19:04 29.65063 -95.27523 47 ft 20 kts 359°
2026-04-22 19:04 29.65170 -95.27513 48 ft 9 kts 19°
2026-04-22 19:04 29.65207 -95.27499 47 ft 0 kts 18°